AFR435 SKBO-LFPG

Flight info

Callsign AFR435
Flight time N/A
Altitude 23000
Route OSUSU4R AKROB W20 MAVDA/N0500F350 DCT KIKAS UW50 PBL/N0496F370 UP533 IMBAT UP671 MIQ UA551 ONGAL UN669 ELJEZ/M084F370 DCT 23N050W 27N045W/M084F390 31N040W 36N030W DCT VMG DCT 41N020W DCT PASAS/M084F410 DCT BUNAV UN536 TIVLU/N0478F400 DCT COQUE DCT AKEMO DCT TERPO DCT ANG/N0475F300 UN741 KEPER
Aircraft A359/H-SDE2E3GHIJ1J3J4J5LM1ORWXY/LB1D1

Departure

Time N/A
Airport El Dorado International Airport (SKBO)

Arrival

Time 2026-05-08 14:08
Airport Charles de Gaulle International Airport (LFPG)
Time Latitude Longitude Altitude Speed Heading
2026-05-08 13:31 47.41777 -1.54255 34947 ft 495 kts 76°
2026-05-08 13:32 47.43507 -1.44395 34951 ft 495 kts 76°
2026-05-08 13:32 47.45217 -1.34586 34954 ft 495 kts 76°
2026-05-08 13:33 47.46927 -1.24727 34951 ft 495 kts 76°
2026-05-08 13:33 47.48625 -1.14900 34961 ft 495 kts 76°
2026-05-08 13:34 47.50322 -1.05011 34960 ft 495 kts 76°
2026-05-08 13:34 47.52002 -0.95165 34963 ft 495 kts 76°
2026-05-08 13:35 47.53764 -0.85262 34963 ft 495 kts 71°
2026-05-08 13:35 47.56014 -0.75686 34974 ft 495 kts 70°
2026-05-08 13:36 47.57720 -0.68664 34691 ft 493 kts 69°
2026-05-08 13:36 47.58896 -0.63875 33980 ft 494 kts 69°
2026-05-08 13:36 47.60072 -0.59093 33411 ft 490 kts 69°
2026-05-08 13:37 47.61230 -0.54342 32897 ft 485 kts 69°
2026-05-08 13:37 47.62353 -0.49699 32399 ft 480 kts 69°
2026-05-08 13:37 47.63470 -0.45063 31910 ft 476 kts 69°
2026-05-08 13:37 47.64580 -0.40446 31415 ft 471 kts 69°
2026-05-08 13:38 47.65679 -0.35864 30923 ft 467 kts 69°
2026-05-08 13:38 47.66752 -0.31383 30458 ft 464 kts 69°
2026-05-08 13:38 47.67825 -0.26891 29952 ft 460 kts 69°
2026-05-08 13:38 47.68888 -0.22432 29444 ft 456 kts 70°
2026-05-08 13:39 47.69944 -0.17994 28962 ft 451 kts 70°
2026-05-08 13:39 47.70981 -0.13624 28484 ft 446 kts 70°
2026-05-08 13:39 47.72008 -0.09293 28012 ft 441 kts 70°
2026-05-08 13:39 47.73007 -0.05067 27559 ft 436 kts 70°
2026-05-08 13:40 47.74007 -0.00831 27102 ft 432 kts 70°
2026-05-08 13:40 47.75001 0.03390 26641 ft 432 kts 69°
2026-05-08 13:40 47.75997 0.07618 26178 ft 432 kts 69°
2026-05-08 13:40 47.76988 0.11842 25712 ft 430 kts 69°
2026-05-08 13:41 47.77960 0.15992 25246 ft 426 kts 69°
2026-05-08 13:41 47.78931 0.20151 24776 ft 423 kts 70°
2026-05-08 13:41 47.79972 0.24215 24315 ft 418 kts 63°
2026-05-08 13:41 47.81521 0.27759 24079 ft 408 kts 46°
2026-05-08 13:42 47.83631 0.30555 23897 ft 401 kts 34°
2026-05-08 13:42 47.85901 0.32987 23326 ft 401 kts 32°
2026-05-08 13:42 47.88170 0.35330 22973 ft 400 kts 32°
2026-05-08 13:42 47.90457 0.37699 22640 ft 399 kts 32°
2026-05-08 13:43 47.92727 0.40063 22335 ft 397 kts 33°
2026-05-08 13:43 47.94998 0.42432 22024 ft 395 kts 32°
2026-05-08 13:43 47.97225 0.44762 21718 ft 394 kts 32°
2026-05-08 13:43 47.99458 0.47106 21415 ft 392 kts 32°
2026-05-08 13:44 48.01690 0.49451 21116 ft 391 kts 32°
2026-05-08 13:44 48.03921 0.51798 20809 ft 389 kts 32°
2026-05-08 13:44 48.06107 0.54100 20518 ft 388 kts 32°
2026-05-08 13:44 48.08319 0.56431 20200 ft 387 kts 32°
2026-05-08 13:45 48.10518 0.58753 19904 ft 385 kts 33°
2026-05-08 13:45 48.12709 0.61068 19593 ft 384 kts 33°
2026-05-08 13:45 48.14892 0.63377 19289 ft 383 kts 33°
2026-05-08 13:45 48.17066 0.65679 19015 ft 382 kts 33°
2026-05-08 13:46 48.19209 0.67950 18736 ft 381 kts 33°
2026-05-08 13:46 48.21374 0.70248 18424 ft 380 kts 33°
2026-05-08 13:46 48.23535 0.72543 18105 ft 379 kts 33°
2026-05-08 13:46 48.25685 0.74830 17795 ft 377 kts 33°
2026-05-08 13:47 48.27791 0.77072 17506 ft 375 kts 33°
2026-05-08 13:47 48.29924 0.79346 17211 ft 373 kts 33°
2026-05-08 13:47 48.32036 0.81599 16926 ft 372 kts 33°
2026-05-08 13:47 48.34079 0.84024 16635 ft 372 kts 43°
2026-05-08 13:48 48.35629 0.87125 16345 ft 371 kts 59°
2026-05-08 13:48 48.36845 0.90505 16065 ft 371 kts 62°
2026-05-08 13:48 48.38027 0.93958 15780 ft 370 kts 62°
2026-05-08 13:48 48.39202 0.97398 15501 ft 368 kts 62°
2026-05-08 13:49 48.40373 1.00812 15204 ft 366 kts 62°
2026-05-08 13:49 48.41531 1.04177 14916 ft 365 kts 62°
2026-05-08 13:49 48.42696 1.07564 14573 ft 363 kts 62°
2026-05-08 13:49 48.43855 1.10937 14231 ft 360 kts 62°
2026-05-08 13:50 48.45004 1.14285 13885 ft 357 kts 62°
2026-05-08 13:50 48.46139 1.17593 13577 ft 352 kts 62°
2026-05-08 13:50 48.47232 1.20783 13368 ft 340 kts 62°
2026-05-08 13:50 48.48298 1.23897 13163 ft 328 kts 62°
2026-05-08 13:51 48.49335 1.26929 12746 ft 318 kts 62°
2026-05-08 13:51 48.50336 1.29856 12470 ft 312 kts 62°
2026-05-08 13:51 48.51320 1.32731 12213 ft 311 kts 62°
2026-05-08 13:51 48.52316 1.35639 11890 ft 309 kts 62°
2026-05-08 13:52 48.53305 1.38520 11689 ft 307 kts 62°
2026-05-08 13:52 48.54277 1.41351 11523 ft 307 kts 62°
2026-05-08 13:52 48.55259 1.44216 11362 ft 306 kts 62°
2026-05-08 13:52 48.56239 1.47079 11177 ft 304 kts 62°
2026-05-08 13:53 48.57342 1.49763 10930 ft 304 kts 49°
2026-05-08 13:53 48.58988 1.51730 10681 ft 300 kts 28°
2026-05-08 13:53 48.60816 1.53138 10432 ft 298 kts 24°
2026-05-08 13:53 48.62701 1.54495 10215 ft 299 kts 24°
2026-05-08 13:54 48.64583 1.55857 9962 ft 297 kts 25°
2026-05-08 13:54 48.66441 1.57211 9692 ft 295 kts 25°
2026-05-08 13:54 48.68256 1.58546 9428 ft 294 kts 26°
2026-05-08 13:54 48.70089 1.59900 9168 ft 291 kts 26°
2026-05-08 13:55 48.71910 1.61249 8891 ft 290 kts 26°
2026-05-08 13:55 48.73727 1.62596 8625 ft 289 kts 26°
2026-05-08 13:55 48.77035 1.65917 8112 ft 285 kts 46°
2026-05-08 13:56 48.78335 1.68175 7870 ft 283 kts 51°
2026-05-08 13:56 48.79572 1.70479 7617 ft 281 kts 51°
2026-05-08 13:56 48.80790 1.72756 7370 ft 280 kts 51°
2026-05-08 13:56 48.82015 1.75048 7121 ft 278 kts 51°
2026-05-08 13:57 48.83217 1.77344 6877 ft 277 kts 51°
2026-05-08 13:57 48.84392 1.79669 6630 ft 276 kts 55°
2026-05-08 13:57 48.85382 1.82162 6383 ft 274 kts 61°
2026-05-08 13:57 48.86282 1.84673 6126 ft 272 kts 62°
2026-05-08 13:58 48.87179 1.87201 5880 ft 270 kts 62°
2026-05-08 13:58 48.88069 1.89702 5621 ft 268 kts 62°
2026-05-08 13:58 48.88960 1.92196 5355 ft 266 kts 62°
2026-05-08 13:58 48.89758 1.94667 5101 ft 262 kts 69°
2026-05-08 13:59 48.90524 1.97175 5002 ft 261 kts 63°
2026-05-08 13:59 48.91377 1.99607 4991 ft 258 kts 62°
2026-05-08 13:59 48.92207 2.01929 4983 ft 241 kts 62°
2026-05-08 13:59 48.92974 2.04081 4984 ft 229 kts 62°
2026-05-08 14:00 48.93729 2.06204 4988 ft 228 kts 62°
2026-05-08 14:00 48.94483 2.08326 4989 ft 227 kts 62°
2026-05-08 14:00 48.95237 2.10445 4989 ft 228 kts 62°
2026-05-08 14:00 48.95994 2.12578 4995 ft 229 kts 62°
2026-05-08 14:01 48.96690 2.14714 4996 ft 227 kts 69°
2026-05-08 14:01 48.97103 2.17001 4991 ft 220 kts 80°
2026-05-08 14:01 48.97284 2.19301 4994 ft 218 kts 85°
2026-05-08 14:01 48.97406 2.21571 4915 ft 213 kts 84°
2026-05-08 14:02 48.97532 2.23799 4686 ft 210 kts 84°
2026-05-08 14:02 48.97654 2.25992 4376 ft 209 kts 84°
2026-05-08 14:02 48.97771 2.28194 4077 ft 206 kts 85°
2026-05-08 14:02 48.97887 2.30334 3768 ft 204 kts 85°
2026-05-08 14:03 48.98000 2.32470 3487 ft 199 kts 84°
2026-05-08 14:03 48.98112 2.34527 3200 ft 191 kts 85°
2026-05-08 14:03 48.98181 2.35837 3026 ft 181 kts 84°
2026-05-08 14:03 48.98311 2.38250 2717 ft 163 kts 84°
2026-05-08 14:04 48.98370 2.39361 2588 ft 154 kts 84°
2026-05-08 14:04 48.98455 2.40937 2387 ft 144 kts 84°
2026-05-08 14:04 48.98534 2.42404 2187 ft 135 kts 84°
2026-05-08 14:04 48.98631 2.44234 1967 ft 132 kts 85°
2026-05-08 14:05 48.98681 2.45180 1850 ft 133 kts 85°
2026-05-08 14:05 48.98757 2.46592 1664 ft 133 kts 85°
2026-05-08 14:05 48.98833 2.47989 1481 ft 132 kts 85°
2026-05-08 14:05 48.98906 2.49383 1327 ft 132 kts 84°
2026-05-08 14:06 48.98980 2.50783 1110 ft 131 kts 84°
2026-05-08 14:06 48.99055 2.52164 1021 ft 135 kts 83°
2026-05-08 14:06 48.99129 2.53583 801 ft 134 kts 82°
2026-05-08 14:06 48.99204 2.54978 605 ft 130 kts 84°
2026-05-08 14:07 48.99279 2.56352 415 ft 130 kts 83°
2026-05-08 14:07 48.99351 2.57659 364 ft 106 kts 85°
2026-05-08 14:07 48.99396 2.58526 359 ft 63 kts 86°
2026-05-08 14:07 48.99441 2.59121 365 ft 51 kts 76°
2026-05-08 14:08 48.99539 2.59496 364 ft 29 kts 65°
2026-05-08 14:08 48.99599 2.59669 368 ft 12 kts 45°
2026-05-08 14:08 48.99670 2.59691 366 ft 11 kts 358°
2026-05-08 14:08 48.99756 2.59682 366 ft 14 kts 355°
2026-05-08 14:09 48.99859 2.59669 359 ft 16 kts 355°
2026-05-08 14:09 48.99968 2.59654 364 ft 16 kts 354°
2026-05-08 14:09 49.00057 2.59635 366 ft 11 kts 334°
2026-05-08 14:09 49.00077 2.59532 364 ft 12 kts 266°
2026-05-08 14:10 49.00069 2.59387 366 ft 15 kts 263°
2026-05-08 14:10 49.00059 2.59220 368 ft 17 kts 265°
2026-05-08 14:10 49.00050 2.59021 366 ft 20 kts 266°
2026-05-08 14:10 49.00037 2.58794 360 ft 23 kts 265°
2026-05-08 14:11 49.00024 2.58544 360 ft 25 kts 265°
2026-05-08 14:11 49.00010 2.58283 365 ft 26 kts 266°
2026-05-08 14:11 48.99996 2.58021 363 ft 22 kts 266°
2026-05-08 14:11 48.99986 2.57822 366 ft 9 kts 266°
2026-05-08 14:12 48.99998 2.57751 369 ft 5 kts 320°
2026-05-08 14:12 49.00048 2.57708 369 ft 9 kts 303°
2026-05-08 14:12 49.00065 2.57639 365 ft 3 kts 323°
2026-05-08 14:12 49.00097 2.57628 366 ft 5 kts 356°
2026-05-08 14:13 49.00119 2.57625 365 ft 1 kts 358°
2026-05-08 14:13 49.00120 2.57625 365 ft 0 kts 358°
2026-05-08 14:13 49.00130 2.57625 365 ft 2 kts 358°
2026-05-08 14:13 49.00139 2.57624 365 ft 0 kts 357°